TimeCST,TemperatureF,Dew PointF,Humidity,Sea Level PressureIn,VisibilityMPH,Wind Direction,Wind SpeedMPH,Gust SpeedMPH,PrecipitationIn,Events,Conditions,WindDirDegrees,DateUTC
12:55 AM,17.1,14.4,89,30.06,10.0,Variable,5.8,-,N/A,,Overcast,0,2012-12-07 06:55:00
1:55 AM,14.9,11.7,87,30.06,10.0,NE,9.2,-,N/A,,Overcast,40,2012-12-07 07:55:00
2:55 AM,12.7,7.5,80,30.08,10.0,NNE,6.9,-,N/A,,Overcast,20,2012-12-07 08:55:00
3:55 AM,11.1,5.5,78,30.09,10.0,NNE,6.9,-,N/A,,Overcast,30,2012-12-07 09:55:00
3:56 AM,10.4,5.0,79,30.09,10.0,NNE,8.1,-,N/A,,Overcast,30,2012-12-07 09:56:00
4:55 AM,9.7,4.1,78,30.10,10.0,NNE,6.9,-,N/A,,Overcast,30,2012-12-07 10:55:00
5:19 AM,8.6,3.2,79,30.10,10.0,NNE,6.9,-,N/A,,Overcast,20,2012-12-07 11:19:00
5:20 AM,8.6,3.2,79,30.10,10.0,NNE,8.1,-,N/A,,Overcast,20,2012-12-07 11:20:00
5:29 AM,8.6,3.2,79,30.11,10.0,North,6.9,-,N/A,,Overcast,10,2012-12-07 11:29:00
5:55 AM,8.1,2.7,79,30.12,10.0,NNE,6.9,-,N/A,,Overcast,30,2012-12-07 11:55:00
6:55 AM,6.8,1.6,79,30.12,10.0,NE,9.2,-,N/A,,Scattered Clouds,40,2012-12-07 12:55:00
7:55 AM,5.7,0.9,80,30.14,10.0,NNE,8.1,-,N/A,,Overcast,30,2012-12-07 13:55:00
8:55 AM,6.3,1.4,80,30.15,10.0,NNE,6.9,-,N/A,,Overcast,30,2012-12-07 14:55:00
9:55 AM,6.8,2.1,81,30.17,10.0,NNE,6.9,-,N/A,,Overcast,30,2012-12-07 15:55:00
10:55 AM,8.2,2.7,78,30.17,10.0,NE,6.9,-,N/A,,Overcast,40,2012-12-07 16:55:00
11:55 AM,9.5,3.0,75,30.15,10.0,NNE,8.1,-,N/A,,Overcast,30,2012-12-07 17:55:00
12:55 PM,10.4,3.4,73,30.14,10.0,NNE,6.9,-,N/A,,Overcast,30,2012-12-07 18:55:00
1:55 PM,11.7,3.0,68,30.13,10.0,NE,6.9,-,N/A,,Overcast,40,2012-12-07 19:55:00
2:55 PM,10.8,3.2,72,30.12,10.0,NE,6.9,-,N/A,,Clear,40,2012-12-07 20:55:00
3:55 PM,10.2,2.7,72,30.12,10.0,East,5.8,-,N/A,,Mostly Cloudy,80,2012-12-07 21:55:00
4:55 PM,8.8,2.8,77,30.13,10.0,NE,5.8,-,N/A,,Clear,40,2012-12-07 22:55:00
5:55 PM,7.7,2.3,79,30.13,10.0,NE,5.8,-,N/A,,Clear,50,2012-12-07 23:55:00
6:55 PM,7.3,2.7,81,30.13,10.0,ENE,5.8,-,N/A,,Clear,60,2012-12-08 00:55:00
7:55 PM,6.8,2.7,83,30.11,10.0,East,4.6,-,N/A,,Partly Cloudy,80,2012-12-08 01:55:00
8:55 PM,7.7,4.1,85,30.10,10.0,ESE,10.4,-,N/A,,Clear,120,2012-12-08 02:55:00
9:11 PM,8.6,5.0,85,30.09,10.0,ESE,9.2,-,N/A,,Mostly Cloudy,110,2012-12-08 03:11:00
9:52 PM,8.6,5.0,85,30.07,10.0,ESE,10.4,-,N/A,,Mostly Cloudy,110,2012-12-08 03:52:00
9:55 PM,8.2,4.8,86,30.06,10.0,ESE,11.5,-,N/A,,Mostly Cloudy,110,2012-12-08 03:55:00
9:56 PM,8.6,5.0,85,30.06,10.0,ESE,11.5,-,N/A,,Mostly Cloudy,120,2012-12-08 03:56:00
10:20 PM,8.6,5.0,85,30.04,10.0,ESE,9.2,-,N/A,,Overcast,110,2012-12-08 04:20:00
10:23 PM,8.6,5.0,85,30.04,10.0,East,9.2,-,N/A,,Overcast,100,2012-12-08 04:23:00
10:49 PM,8.6,5.0,85,30.03,8.0,East,11.5,-,N/A,,Overcast,100,2012-12-08 04:49:00
10:55 PM,9.1,6.1,87,30.03,5.0,East,10.4,-,0.00,Snow,Light Snow,100,2012-12-08 04:55:00
10:58 PM,8.6,6.8,92,30.02,3.0,East,9.2,-,N/A,Snow,Light Snow,100,2012-12-08 04:58:00
11:01 PM,8.6,6.8,92,30.02,2.5,East,11.5,-,N/A,Snow,Light Snow,90,2012-12-08 05:01:00
11:04 PM,8.6,6.8,92,30.02,1.8,East,10.4,-,N/A,Snow,Light Snow,90,2012-12-08 05:04:00
11:06 PM,8.6,6.8,92,30.02,1.5,East,10.4,-,N/A,Snow,Light Snow,100,2012-12-08 05:06:00
11:18 PM,10.4,6.8,85,30.02,2.0,East,9.2,-,N/A,Snow,Light Snow,100,2012-12-08 05:18:00
11:26 PM,10.4,6.8,85,30.02,1.8,East,8.1,-,N/A,Snow,Light Snow,100,2012-12-08 05:26:00
11:29 PM,10.4,6.8,85,30.01,1.2,East,10.4,-,N/A,Snow,Light Snow,100,2012-12-08 05:29:00
11:31 PM,10.4,6.8,85,30.01,1.0,East,11.5,-,N/A,Snow,Light Snow,100,2012-12-08 05:31:00
11:35 PM,10.4,6.8,85,30.01,0.8,East,10.4,-,N/A,Snow,Light Snow,90,2012-12-08 05:35:00
11:36 PM,10.4,6.8,85,30.01,0.8,East,11.5,-,N/A,Snow,Light Snow,90,2012-12-08 05:36:00
11:37 PM,10.4,6.8,85,30.01,0.8,East,10.4,-,N/A,Snow,Light Snow,90,2012-12-08 05:37:00
11:49 PM,10.4,6.8,85,30.01,0.8,East,8.1,-,N/A,Snow,Light Snow,90,2012-12-08 05:49:00
11:55 PM,9.9,6.8,87,30.01,0.8,East,11.5,-,0.00,Snow,Light Snow,100,2012-12-08 05:55:00